UAE24 OMDB-LFPG

Flight info

Callsign UAE24
Flight time N/A
Altitude 36000
Route RIDAP M557 TUMAK L602 GADSI M860 SEPTU DCT VUSEB/N0479F380 M860 NINVA UM860 ODALI UL852 NEGEM T746 ARGES DCT MOPUG DCT EBORO DCT OKORA DCT SUNIS DCT ERKIR L608 KPT L856 RAVED Y112 HOC/N0471F390 DCT MOROK/N0470F350 DCT PENDU DCT JAVVU DCT GIVRI/N0471F380 DCT TINIL
Aircraft B77L/H-SDE1E2E3FGHIJ2J3J4J5M1RWXY/LB1D1

Departure

Time 2026-05-04 01:29
Airport Dubai International Airport (OMDB)

Arrival

Time N/A
Airport Charles de Gaulle International Airport (LFPG)
Time Latitude Longitude Altitude Speed Heading
2026-05-04 01:02 25.25163 55.35778 26 ft 0 kts 211°
2026-05-04 01:02 25.25164 55.35779 26 ft 0 kts 211°
2026-05-04 01:20 25.25176 55.35787 31 ft 4 kts 211°
2026-05-04 01:20 25.25199 55.35802 31 ft 4 kts 211°
2026-05-04 01:20 25.25221 55.35817 31 ft 3 kts 211°
2026-05-04 01:20 25.25239 55.35831 31 ft 4 kts 239°
2026-05-04 01:21 25.25244 55.35850 31 ft 4 kts 285°
2026-05-04 01:21 25.25234 55.35874 31 ft 4 kts 302°
2026-05-04 01:21 25.25221 55.35898 31 ft 2 kts 302°
2026-05-04 01:21 25.25220 55.35899 31 ft 0 kts 302°
2026-05-04 01:24 25.25222 55.35896 26 ft 3 kts 301°
2026-05-04 01:24 25.25251 55.35843 29 ft 13 kts 300°
2026-05-04 01:24 25.25281 55.35788 31 ft 15 kts 300°
2026-05-04 01:25 25.25336 55.35701 30 ft 15 kts 320°
2026-05-04 01:25 25.25432 55.35712 29 ft 14 kts 27°
2026-05-04 01:25 25.25512 55.35764 29 ft 9 kts 31°
2026-05-04 01:25 25.25564 55.35801 29 ft 9 kts 36°
2026-05-04 01:26 25.25593 55.35859 29 ft 9 kts 86°
2026-05-04 01:26 25.25570 55.35923 29 ft 9 kts 120°
2026-05-04 01:26 25.25568 55.35926 29 ft 0 kts 120°
2026-05-04 01:28 25.25521 55.36012 31 ft 55 kts 120°
2026-05-04 01:28 25.25124 55.36739 34 ft 165 kts 119°
2026-05-04 01:29 25.24407 55.38012 647 ft 205 kts 125°
2026-05-04 01:29 25.23593 55.39415 1365 ft 229 kts 122°
2026-05-04 01:29 25.22739 55.40983 2232 ft 246 kts 122°
2026-05-04 01:29 25.21842 55.42612 3172 ft 249 kts 124°
2026-05-04 01:30 25.20665 55.43997 3844 ft 250 kts 154°
2026-05-04 01:30 25.19036 55.44442 4653 ft 240 kts 188°
2026-05-04 01:30 25.17444 55.43929 5373 ft 238 kts 212°
2026-05-04 01:30 25.15980 55.42987 5888 ft 253 kts 216°
2026-05-04 01:31 25.14701 55.41647 6463 ft 259 kts 243°
2026-05-04 01:31 25.14176 55.39750 7196 ft 263 kts 269°
2026-05-04 01:31 25.14287 55.37737 7938 ft 267 kts 276°
2026-05-04 01:31 25.14479 55.35705 8660 ft 265 kts 276°
2026-05-04 01:32 25.14670 55.33660 9015 ft 270 kts 276°
2026-05-04 01:32 25.14859 55.31576 8998 ft 274 kts 276°
2026-05-04 01:32 25.15097 55.29493 9000 ft 273 kts 282°
2026-05-04 01:32 25.15581 55.27464 9165 ft 273 kts 285°
2026-05-04 01:33 25.16113 55.25461 10069 ft 273 kts 285°
2026-05-04 01:33 25.16657 55.23423 10741 ft 283 kts 289°
2026-05-04 01:33 25.17612 55.21414 10934 ft 311 kts 302°
2026-05-04 01:33 25.18844 55.19326 11128 ft 338 kts 302°
2026-05-04 01:34 25.20148 55.17068 11443 ft 359 kts 302°
2026-05-04 01:34 25.21494 55.14694 12088 ft 369 kts 302°
2026-05-04 01:34 25.22859 55.12267 12855 ft 375 kts 302°
2026-05-04 01:34 25.24238 55.09806 13665 ft 379 kts 303°
2026-05-04 01:35 25.25633 55.07315 14399 ft 382 kts 303°
2026-05-04 01:35 25.27035 55.04808 15196 ft 384 kts 303°
2026-05-04 01:35 25.28445 55.02289 15956 ft 387 kts 303°
2026-05-04 01:35 25.29865 54.99750 16698 ft 390 kts 303°
2026-05-04 01:36 25.31301 54.97181 17423 ft 394 kts 303°
2026-05-04 01:36 25.32747 54.94592 18150 ft 397 kts 303°
2026-05-04 01:36 25.34188 54.92013 18740 ft 401 kts 302°
2026-05-04 01:36 25.35464 54.89254 19264 ft 407 kts 292°
2026-05-04 01:37 25.36316 54.86249 19815 ft 412 kts 288°
2026-05-04 01:37 25.37110 54.83186 20409 ft 416 kts 288°
2026-05-04 01:37 25.37930 54.80111 20998 ft 419 kts 288°
2026-05-04 01:37 25.38793 54.77012 21570 ft 423 kts 289°
2026-05-04 01:38 25.39683 54.73895 22130 ft 427 kts 289°
2026-05-04 01:38 25.40586 54.70751 22675 ft 431 kts 289°
2026-05-04 01:38 25.41506 54.67574 23219 ft 435 kts 289°
2026-05-04 01:38 25.42433 54.64374 23699 ft 439 kts 289°
2026-05-04 01:39 25.43364 54.61155 24191 ft 440 kts 289°
2026-05-04 01:39 25.44304 54.57940 24736 ft 440 kts 289°
2026-05-04 01:39 25.45255 54.54715 25253 ft 441 kts 289°
2026-05-04 01:39 25.46209 54.51485 25722 ft 443 kts 289°
2026-05-04 01:40 25.47169 54.48229 26185 ft 446 kts 288°
2026-05-04 01:40 25.48129 54.44960 26659 ft 447 kts 288°
2026-05-04 01:40 25.49090 54.41680 27145 ft 449 kts 288°
2026-05-04 01:40 25.50054 54.38384 27623 ft 451 kts 288°
2026-05-04 01:41 25.51020 54.35076 28056 ft 453 kts 288°
2026-05-04 01:41 25.51989 54.31756 28487 ft 454 kts 288°
2026-05-04 01:41 25.52964 54.28412 28901 ft 456 kts 288°
2026-05-04 01:41 25.53941 54.25063 29283 ft 458 kts 288°
2026-05-04 01:42 25.54931 54.21688 29659 ft 459 kts 288°
2026-05-04 01:42 25.55923 54.18341 30105 ft 458 kts 288°
2026-05-04 01:42 25.56916 54.14993 30583 ft 456 kts 288°
2026-05-04 01:42 25.57900 54.11666 31041 ft 454 kts 287°
2026-05-04 01:43 25.58880 54.08347 31471 ft 453 kts 287°
2026-05-04 01:43 25.59841 54.05066 31860 ft 453 kts 287°
2026-05-04 01:43 25.60803 54.01707 32293 ft 451 kts 286°
2026-05-04 01:43 25.61729 53.98433 32723 ft 450 kts 286°
2026-05-04 01:44 25.62661 53.95129 33143 ft 449 kts 286°
2026-05-04 01:44 25.63591 53.91833 33545 ft 449 kts 286°
2026-05-04 01:44 25.64520 53.88541 33929 ft 448 kts 285°
2026-05-04 01:44 25.65452 53.85244 34260 ft 447 kts 285°
2026-05-04 01:45 25.66380 53.81954 34586 ft 447 kts 285°
2026-05-04 01:45 25.67305 53.78675 34901 ft 446 kts 285°
2026-05-04 01:45 25.69152 53.72126 35538 ft 445 kts 285°
2026-05-04 01:46 25.70076 53.68847 35715 ft 447 kts 285°
2026-05-04 01:46 25.71005 53.65542 35739 ft 450 kts 285°
2026-05-04 01:46 25.72855 53.58943 35785 ft 446 kts 285°
2026-05-04 01:47 25.74683 53.52413 35778 ft 442 kts 285°
2026-05-04 01:47 25.76509 53.45925 35786 ft 440 kts 285°
2026-05-04 01:48 25.78341 53.39458 35793 ft 439 kts 285°
2026-05-04 01:48 25.80166 53.32985 35792 ft 440 kts 285°
2026-05-04 01:49 25.81988 53.26499 35793 ft 441 kts 285°
2026-05-04 01:49 25.83821 53.19988 35794 ft 442 kts 287°
2026-05-04 01:50 25.86165 53.13651 35806 ft 445 kts 292°
2026-05-04 01:50 25.88748 53.07397 35797 ft 446 kts 292°
2026-05-04 01:51 25.91313 53.01124 35799 ft 447 kts 292°
2026-05-04 01:51 25.93848 52.94868 35797 ft 447 kts 291°
2026-05-04 01:52 25.96396 52.88564 35802 ft 447 kts 291°
2026-05-04 01:52 25.98943 52.82249 35800 ft 447 kts 291°
2026-05-04 01:53 26.01487 52.75940 35800 ft 447 kts 291°
2026-05-04 01:53 26.04165 52.69706 35801 ft 448 kts 294°
2026-05-04 01:54 26.07008 52.63548 35802 ft 447 kts 294°
2026-05-04 01:54 26.09803 52.57379 35807 ft 446 kts 294°
2026-05-04 01:55 26.12562 52.51241 35805 ft 446 kts 294°
2026-05-04 01:55 26.15363 52.45072 35806 ft 446 kts 294°
2026-05-04 01:56 26.18153 52.38911 35811 ft 445 kts 294°
2026-05-04 01:56 26.20934 52.32754 35810 ft 445 kts 294°
2026-05-04 01:57 26.23681 52.26577 35809 ft 445 kts 293°
2026-05-04 01:57 26.26355 52.20369 35810 ft 444 kts 292°
2026-05-04 01:58 26.29011 52.14202 35817 ft 444 kts 292°
2026-05-04 01:58 26.31692 52.07997 35816 ft 444 kts 292°
2026-05-04 01:59 26.34356 52.01781 35819 ft 444 kts 292°
2026-05-04 01:59 26.37010 51.95561 35818 ft 444 kts 292°
2026-05-04 02:00 26.39265 51.89190 35828 ft 441 kts 287°
2026-05-04 02:00 26.41385 51.82761 35818 ft 441 kts 288°
2026-05-04 02:01 26.43556 51.76347 35818 ft 442 kts 288°
2026-05-04 02:01 26.45708 51.69981 35825 ft 442 kts 288°
2026-05-04 02:02 26.47884 51.63567 35822 ft 442 kts 288°
2026-05-04 02:02 26.50032 51.57151 35825 ft 441 kts 287°
2026-05-04 02:03 26.52158 51.50728 35830 ft 441 kts 287°
2026-05-04 02:03 26.54286 51.44294 35827 ft 441 kts 287°
2026-05-04 02:04 26.56409 51.37869 35828 ft 441 kts 287°
2026-05-04 02:04 26.58530 51.31447 35829 ft 441 kts 287°
2026-05-04 02:05 26.60653 51.25023 35832 ft 441 kts 287°
2026-05-04 02:05 26.62783 51.18586 35832 ft 441 kts 287°
2026-05-04 02:06 26.64902 51.12160 35833 ft 441 kts 287°
2026-05-04 02:06 26.67017 51.05730 35834 ft 441 kts 287°
2026-05-04 02:07 26.69112 50.99343 35835 ft 440 kts 287°
2026-05-04 02:07 26.71186 50.92902 35836 ft 440 kts 287°
2026-05-04 02:08 26.73249 50.86451 35832 ft 440 kts 287°
2026-05-04 02:08 26.75311 50.80001 35833 ft 440 kts 287°
2026-05-04 02:09 26.77372 50.73552 35837 ft 440 kts 287°
2026-05-04 02:09 26.79720 50.67207 35843 ft 444 kts 294°
2026-05-04 02:10 26.82342 50.62244 35843 ft 447 kts 299°
2026-05-04 02:10 26.86193 50.56713 35844 ft 451 kts 305°
2026-05-04 02:11 26.90209 50.51306 35844 ft 451 kts 304°
2026-05-04 02:11 26.94341 50.45999 35842 ft 453 kts 308°
2026-05-04 02:12 26.98671 50.40911 35850 ft 453 kts 308°
2026-05-04 02:12 27.03001 50.35781 35844 ft 453 kts 308°
2026-05-04 02:13 27.07302 50.30629 35843 ft 452 kts 307°
2026-05-04 02:13 27.11590 50.25452 35840 ft 452 kts 307°
2026-05-04 02:14 27.15948 50.20351 35857 ft 455 kts 311°
2026-05-04 02:14 27.20957 50.15896 35864 ft 461 kts 317°
2026-05-04 02:15 27.26145 50.11675 35852 ft 461 kts 317°
2026-05-04 02:15 27.31312 50.07407 35855 ft 460 kts 317°
2026-05-04 02:16 27.36455 50.03128 35854 ft 460 kts 316°
2026-05-04 02:16 27.41517 49.98742 35853 ft 458 kts 315°
2026-05-04 02:17 27.46527 49.94305 35858 ft 458 kts 315°
2026-05-04 02:17 27.51539 49.89879 35856 ft 458 kts 315°
2026-05-04 02:18 27.56530 49.85482 35854 ft 458 kts 315°
2026-05-04 02:18 27.61546 49.81063 35851 ft 458 kts 315°
2026-05-04 02:19 27.66554 49.76643 35854 ft 457 kts 315°
2026-05-04 02:19 27.71564 49.72215 35855 ft 457 kts 315°
2026-05-04 02:20 27.76569 49.67786 35845 ft 457 kts 315°
2026-05-04 02:20 27.81556 49.63358 35847 ft 456 kts 314°
2026-05-04 02:21 27.86532 49.58909 35855 ft 456 kts 314°
2026-05-04 02:21 27.91509 49.54449 35879 ft 457 kts 314°
2026-05-04 02:22 27.96524 49.49949 35894 ft 462 kts 314°
2026-05-04 02:22 28.01529 49.45463 35856 ft 455 kts 314°
2026-05-04 02:23 28.06456 49.41014 35854 ft 452 kts 314°
2026-05-04 02:23 28.11318 49.36578 35849 ft 451 kts 314°
2026-05-04 02:24 28.16205 49.32113 35858 ft 452 kts 313°
2026-05-04 02:24 28.21099 49.27639 35856 ft 452 kts 313°
2026-05-04 02:25 28.25995 49.23163 35857 ft 453 kts 313°
2026-05-04 02:25 28.30890 49.18661 35856 ft 453 kts 313°
2026-05-04 02:26 28.35780 49.14139 35853 ft 453 kts 313°
2026-05-04 02:26 28.40737 49.09680 35846 ft 458 kts 317°
2026-05-04 02:27 28.46038 49.05628 35854 ft 460 kts 318°
2026-05-04 02:27 28.51372 49.01602 35852 ft 460 kts 318°
2026-05-04 02:28 28.56687 48.97549 35855 ft 460 kts 317°
2026-05-04 02:28 28.61989 48.93481 35850 ft 459 kts 317°
2026-05-04 02:29 28.67247 48.89439 35846 ft 459 kts 317°
2026-05-04 02:29 28.72542 48.85364 35853 ft 458 kts 317°
2026-05-04 02:30 28.77821 48.81296 35841 ft 458 kts 317°
2026-05-04 02:30 28.83099 48.77235 35842 ft 458 kts 317°
2026-05-04 02:31 28.88384 48.73189 35847 ft 457 kts 317°
2026-05-04 02:31 28.93665 48.69139 35847 ft 457 kts 317°
2026-05-04 02:32 28.98905 48.65110 35849 ft 457 kts 317°
2026-05-04 02:32 29.04182 48.61045 35841 ft 457 kts 316°
2026-05-04 02:33 29.09444 48.56985 35846 ft 456 kts 316°
2026-05-04 02:33 29.14709 48.52919 35848 ft 456 kts 316°
2026-05-04 02:34 29.19960 48.48858 35838 ft 456 kts 316°
2026-05-04 02:34 29.25215 48.44789 35839 ft 456 kts 316°
2026-05-04 02:35 29.30471 48.40713 35834 ft 456 kts 316°
2026-05-04 02:35 29.35717 48.36638 35833 ft 455 kts 316°
2026-05-04 02:36 29.40957 48.32564 35834 ft 455 kts 316°
2026-05-04 02:36 29.46287 48.28665 35833 ft 461 kts 320°
2026-05-04 02:37 29.51871 48.25024 35839 ft 462 kts 320°
2026-05-04 02:37 29.57471 48.21393 35832 ft 462 kts 320°
2026-05-04 02:38 29.63059 48.17729 35835 ft 462 kts 320°
2026-05-04 02:38 29.68640 48.14048 35834 ft 462 kts 320°
2026-05-04 02:39 29.74216 48.10364 35835 ft 462 kts 320°
2026-05-04 02:39 29.79800 48.06671 35833 ft 463 kts 319°
2026-05-04 02:40 29.85384 48.02973 35835 ft 463 kts 319°
2026-05-04 02:40 29.90963 47.99271 35834 ft 463 kts 319°
2026-05-04 02:41 29.96536 47.95572 35837 ft 462 kts 319°
2026-05-04 02:41 30.01770 47.91470 35845 ft 447 kts 310°
2026-05-04 02:42 30.06212 47.86579 35838 ft 434 kts 302°
2026-05-04 02:42 30.10156 47.81311 35829 ft 433 kts 301°
2026-05-04 02:43 30.14074 47.76029 35831 ft 433 kts 301°
2026-05-04 02:43 30.17983 47.70784 35833 ft 433 kts 301°
2026-05-04 02:44 30.21922 47.65512 35830 ft 433 kts 301°
2026-05-04 02:44 30.25863 47.60235 35834 ft 433 kts 301°
2026-05-04 02:45 30.29791 47.54967 35842 ft 433 kts 301°
2026-05-04 02:45 30.33728 47.49680 35844 ft 433 kts 301°
2026-05-04 02:46 30.37654 47.44399 35837 ft 433 kts 301°
2026-05-04 02:46 30.41576 47.39116 35835 ft 433 kts 301°
2026-05-04 02:47 30.45474 47.33857 35833 ft 433 kts 301°
2026-05-04 02:47 30.49393 47.28562 35835 ft 433 kts 301°
2026-05-04 02:48 30.53314 47.23258 35834 ft 433 kts 301°
2026-05-04 02:48 30.57422 47.18085 35839 ft 441 kts 307°
2026-05-04 02:49 30.62207 47.13499 35848 ft 448 kts 311°
2026-05-04 02:49 30.67095 47.08997 35835 ft 449 kts 311°
2026-05-04 02:50 30.71980 47.04465 35837 ft 449 kts 311°
2026-05-04 02:50 30.76841 46.99923 35842 ft 449 kts 310°
2026-05-04 02:51 30.81681 46.95388 35833 ft 449 kts 310°
2026-05-04 02:51 30.86540 46.90826 35833 ft 449 kts 310°
2026-05-04 02:52 30.91399 46.86260 35834 ft 449 kts 310°
2026-05-04 02:52 30.96264 46.81682 35834 ft 449 kts 310°
2026-05-04 02:53 31.01125 46.77102 35831 ft 449 kts 310°
2026-05-04 02:53 31.05986 46.72516 35837 ft 449 kts 310°
2026-05-04 02:54 31.10848 46.67922 35836 ft 450 kts 310°
2026-05-04 02:54 31.15705 46.63328 35838 ft 450 kts 310°
2026-05-04 02:55 31.22975 46.56438 35836 ft 450 kts 310°
2026-05-04 02:56 31.27854 46.51804 36194 ft 452 kts 310°
2026-05-04 02:56 31.30288 46.49494 36592 ft 450 kts 310°
2026-05-04 02:56 31.32713 46.47192 36991 ft 447 kts 309°
2026-05-04 02:56 31.35121 46.44904 37356 ft 446 kts 309°
2026-05-04 02:57 31.37526 46.42615 37651 ft 446 kts 309°
2026-05-04 02:57 31.42245 46.38108 37791 ft 449 kts 309°
2026-05-04 02:58 31.47092 46.33482 37828 ft 447 kts 309°
2026-05-04 02:58 31.51907 46.28882 37831 ft 446 kts 309°
2026-05-04 02:59 31.56704 46.24290 37841 ft 445 kts 309°
2026-05-04 02:59 31.61461 46.19728 37844 ft 444 kts 309°
2026-05-04 03:00 31.66249 46.15129 37856 ft 444 kts 309°
2026-05-04 03:00 31.71029 46.10530 37864 ft 445 kts 309°
2026-05-04 03:01 31.75824 46.05911 37870 ft 445 kts 308°
2026-05-04 03:01 31.80567 46.01236 37867 ft 445 kts 308°
2026-05-04 03:02 31.84493 45.97324 37867 ft 446 kts 308°
2026-05-04 03:02 31.90030 45.91804 37887 ft 446 kts 308°
2026-05-04 03:03 31.94746 45.87105 37899 ft 447 kts 308°
2026-05-04 03:03 31.99497 45.82368 37897 ft 448 kts 308°
2026-05-04 03:04 32.03473 45.78399 37903 ft 448 kts 308°
2026-05-04 03:04 32.08998 45.72876 37911 ft 447 kts 308°
2026-05-04 03:05 32.12937 45.68932 37901 ft 447 kts 308°
2026-05-04 03:05 32.17673 45.64185 37901 ft 446 kts 308°
2026-05-04 03:06 32.22397 45.59442 37901 ft 445 kts 308°
2026-05-04 03:06 32.27107 45.54706 37898 ft 444 kts 307°
2026-05-04 03:07 32.31805 45.49974 37899 ft 443 kts 307°
2026-05-04 03:07 32.36494 45.45245 37902 ft 443 kts 307°
2026-05-04 03:08 32.41177 45.40514 37898 ft 442 kts 307°
2026-05-04 03:08 32.45856 45.35780 37900 ft 442 kts 307°
2026-05-04 03:09 32.50534 45.31039 37901 ft 443 kts 307°
2026-05-04 03:09 32.55249 45.26323 37898 ft 448 kts 310°
2026-05-04 03:10 32.60420 45.22111 37907 ft 456 kts 314°
2026-05-04 03:10 32.65727 45.17974 37914 ft 457 kts 314°
2026-05-04 03:11 32.71029 45.13806 37900 ft 457 kts 314°
2026-05-04 03:11 32.76323 45.09609 37907 ft 458 kts 314°
2026-05-04 03:12 32.81615 45.05398 37906 ft 458 kts 314°
2026-05-04 03:12 32.86913 45.01176 37909 ft 459 kts 314°
2026-05-04 03:13 32.92223 44.96940 37910 ft 459 kts 314°
2026-05-04 03:13 32.97526 44.92705 37905 ft 459 kts 314°
2026-05-04 03:14 33.02817 44.88471 37901 ft 458 kts 314°
2026-05-04 03:14 33.08113 44.84226 37903 ft 458 kts 314°
2026-05-04 03:15 33.13393 44.79986 37902 ft 457 kts 314°
2026-05-04 03:15 33.18674 44.75832 37892 ft 463 kts 318°
2026-05-04 03:16 33.24639 44.72554 37908 ft 481 kts 328°
2026-05-04 03:16 33.31180 44.70348 37918 ft 492 kts 334°
2026-05-04 03:17 33.37856 44.68468 37904 ft 493 kts 335°
2026-05-04 03:17 33.44534 44.66578 37904 ft 493 kts 334°
2026-05-04 03:18 33.51188 44.64636 37901 ft 492 kts 334°
2026-05-04 03:18 33.57842 44.62666 37900 ft 492 kts 334°
2026-05-04 03:19 33.64495 44.60689 37915 ft 493 kts 334°
2026-05-04 03:19 33.71153 44.58710 37919 ft 493 kts 334°
2026-05-04 03:20 33.77817 44.56728 37915 ft 493 kts 334°
2026-05-04 03:20 33.84482 44.54744 37905 ft 493 kts 334°
2026-05-04 03:21 33.91105 44.52769 37907 ft 493 kts 334°
2026-05-04 03:21 33.97759 44.50782 37908 ft 493 kts 334°
2026-05-04 03:22 34.04413 44.48791 37906 ft 492 kts 334°
2026-05-04 03:22 34.11056 44.46800 37908 ft 492 kts 334°
2026-05-04 03:23 34.17701 44.44806 37910 ft 492 kts 334°
2026-05-04 03:23 34.24336 44.42810 37888 ft 491 kts 334°
2026-05-04 03:24 34.30967 44.40813 37919 ft 491 kts 334°
2026-05-04 03:24 34.37605 44.38810 37895 ft 491 kts 334°
2026-05-04 03:25 34.44235 44.36807 37895 ft 491 kts 334°
2026-05-04 03:25 34.50817 44.34814 37901 ft 491 kts 334°
2026-05-04 03:26 34.57445 44.32805 37899 ft 491 kts 334°
2026-05-04 03:26 34.64076 44.30791 37900 ft 491 kts 334°
2026-05-04 03:27 34.70710 44.28773 37898 ft 492 kts 334°
2026-05-04 03:27 34.77356 44.26748 37897 ft 492 kts 334°
2026-05-04 03:28 34.84013 44.24717 37899 ft 493 kts 334°
2026-05-04 03:28 34.90679 44.22679 37897 ft 494 kts 334°
2026-05-04 03:29 34.97351 44.20636 37900 ft 495 kts 334°
2026-05-04 03:29 35.03990 44.18599 37883 ft 496 kts 334°
2026-05-04 03:30 35.10686 44.16543 37897 ft 496 kts 334°
2026-05-04 03:30 35.17394 44.14478 37895 ft 497 kts 334°
2026-05-04 03:31 35.24106 44.12410 37905 ft 498 kts 334°
2026-05-04 03:31 35.30817 44.10338 37901 ft 498 kts 334°
2026-05-04 03:32 35.37541 44.08258 37899 ft 498 kts 334°
2026-05-04 03:32 35.44258 44.06178 37911 ft 497 kts 334°
2026-05-04 03:33 35.50965 44.04097 37899 ft 497 kts 334°
2026-05-04 03:33 35.57664 44.02014 37918 ft 496 kts 334°
2026-05-04 03:34 35.64353 43.99930 37913 ft 496 kts 333°
2026-05-04 03:34 35.71039 43.97843 37920 ft 495 kts 333°
2026-05-04 03:35 35.77719 43.95754 37921 ft 495 kts 333°
2026-05-04 03:35 35.84403 43.93661 37923 ft 496 kts 333°
2026-05-04 03:36 35.91082 43.91566 37923 ft 495 kts 333°
2026-05-04 03:36 35.97768 43.89465 37925 ft 496 kts 333°
2026-05-04 03:37 36.04453 43.87358 37907 ft 496 kts 333°
2026-05-04 03:37 36.11104 43.85260 37939 ft 497 kts 334°
2026-05-04 03:38 36.17810 43.83138 37917 ft 498 kts 334°
2026-05-04 03:38 36.24525 43.81012 37921 ft 498 kts 334°
2026-05-04 03:39 36.31040 43.78422 37916 ft 484 kts 326°
2026-05-04 03:39 36.37232 43.75174 37929 ft 483 kts 324°
2026-05-04 03:40 36.43427 43.71883 37928 ft 485 kts 325°
2026-05-04 03:40 36.49656 43.68624 37925 ft 487 kts 325°
2026-05-04 03:41 36.55906 43.65374 37927 ft 487 kts 326°
2026-05-04 03:41 36.62166 43.62113 37924 ft 488 kts 326°
2026-05-04 03:42 36.68430 43.58837 37925 ft 489 kts 326°
2026-05-04 03:42 36.74665 43.55573 37931 ft 489 kts 326°
2026-05-04 03:43 36.80888 43.52176 37926 ft 487 kts 324°
2026-05-04 03:43 36.87066 43.48695 37927 ft 487 kts 324°
2026-05-04 03:44 36.93242 43.45222 37959 ft 486 kts 324°
2026-05-04 03:44 36.99430 43.41750 37939 ft 489 kts 325°
2026-05-04 03:45 37.05636 43.38270 37949 ft 489 kts 324°
2026-05-04 03:45 37.11850 43.34778 37968 ft 490 kts 325°
2026-05-04 03:46 37.18085 43.31265 37954 ft 492 kts 325°
2026-05-04 03:46 37.24297 43.27758 37970 ft 493 kts 325°
2026-05-04 03:47 37.30535 43.24203 37953 ft 489 kts 322°
2026-05-04 03:47 37.33340 43.21932 37985 ft 469 kts 310°
2026-05-04 03:47 37.35648 43.19149 37972 ft 453 kts 301°
2026-05-04 03:47 37.37529 43.16042 37976 ft 441 kts 291°
2026-05-04 03:48 37.38980 43.12699 37996 ft 432 kts 288°
2026-05-04 03:48 37.41450 43.06729 37960 ft 435 kts 288°
2026-05-04 03:49 37.44270 42.99967 37966 ft 439 kts 289°
2026-05-04 03:49 37.47120 42.93220 37930 ft 433 kts 289°
2026-05-04 03:50 37.49962 42.86499 37950 ft 443 kts 289°
2026-05-04 03:50 37.52867 42.79614 37935 ft 446 kts 289°
2026-05-04 03:51 37.55774 42.72719 37966 ft 445 kts 289°
2026-05-04 03:51 37.58681 42.65800 37950 ft 447 kts 289°
2026-05-04 03:52 37.61606 42.58871 37931 ft 448 kts 289°
2026-05-04 03:52 37.64545 42.51921 37954 ft 448 kts 289°
2026-05-04 03:53 37.67472 42.44978 37949 ft 447 kts 289°
2026-05-04 03:53 37.70373 42.38066 37953 ft 444 kts 289°
2026-05-04 03:54 37.73238 42.31205 37916 ft 445 kts 289°
2026-05-04 03:54 37.76141 42.24264 37930 ft 448 kts 289°
2026-05-04 03:55 37.79052 42.17284 37924 ft 451 kts 289°
2026-05-04 03:55 37.81991 42.10211 37906 ft 457 kts 290°
2026-05-04 03:56 37.84942 42.03106 37921 ft 455 kts 289°
2026-05-04 03:56 37.87876 41.96020 37913 ft 453 kts 289°
2026-05-04 03:57 37.90949 41.89042 37906 ft 458 kts 295°
2026-05-04 03:57 37.94888 41.82608 37916 ft 466 kts 302°
2026-05-04 03:58 38.01376 41.73418 37920 ft 466 kts 303°
2026-05-04 03:58 38.05686 41.67266 37925 ft 466 kts 303°
2026-05-04 03:59 38.09969 41.61092 37922 ft 466 kts 302°
2026-05-04 03:59 38.14252 41.54895 37929 ft 467 kts 302°
2026-05-04 04:00 38.18512 41.48721 37938 ft 467 kts 302°
2026-05-04 04:00 38.22829 41.42453 37946 ft 468 kts 303°
2026-05-04 04:01 38.27094 41.36251 37924 ft 469 kts 303°
2026-05-04 04:01 38.31394 41.29982 37921 ft 471 kts 303°
2026-05-04 04:02 38.35699 41.23695 37952 ft 471 kts 303°
2026-05-04 04:02 38.40014 41.17380 37926 ft 472 kts 303°
2026-05-04 04:03 38.44326 41.11056 37921 ft 473 kts 303°
2026-05-04 04:03 38.48617 41.04702 37926 ft 472 kts 302°
2026-05-04 04:04 38.52823 40.98267 37924 ft 472 kts 301°
2026-05-04 04:04 38.57023 40.91820 37908 ft 472 kts 302°
2026-05-04 04:05 38.61237 40.85365 37917 ft 473 kts 302°
2026-05-04 04:05 38.65473 40.78901 37912 ft 475 kts 302°
2026-05-04 04:06 38.69737 40.72478 37917 ft 477 kts 302°
2026-05-04 04:06 38.74033 40.65994 37913 ft 478 kts 302°
2026-05-04 04:07 38.78320 40.59493 37899 ft 477 kts 302°
2026-05-04 04:07 38.82607 40.52973 37902 ft 478 kts 302°
2026-05-04 04:08 38.86887 40.46451 37901 ft 478 kts 303°
2026-05-04 04:08 38.91171 40.39905 37893 ft 478 kts 303°
2026-05-04 04:09 38.95418 40.33403 37882 ft 479 kts 303°
2026-05-04 04:09 38.99691 40.26852 37872 ft 478 kts 303°
2026-05-04 04:10 39.03954 40.20300 37884 ft 478 kts 303°
2026-05-04 04:10 39.08223 40.13722 37880 ft 479 kts 303°
2026-05-04 04:11 39.12497 40.07123 37864 ft 481 kts 303°
2026-05-04 04:11 39.16781 40.00493 37864 ft 482 kts 304°
2026-05-04 04:12 39.21067 39.93859 37850 ft 481 kts 304°
2026-05-04 04:12 39.25357 39.87213 37856 ft 482 kts 304°
2026-05-04 04:13 39.29615 39.80598 37854 ft 482 kts 304°
2026-05-04 04:13 39.33904 39.73912 37826 ft 484 kts 304°
2026-05-04 04:14 39.38199 39.67210 37825 ft 484 kts 304°
2026-05-04 04:14 39.42478 39.60513 37814 ft 483 kts 304°
2026-05-04 04:15 39.46751 39.53805 37796 ft 483 kts 304°
2026-05-04 04:15 39.51016 39.47104 37787 ft 482 kts 304°
2026-05-04 04:16 39.55231 39.40378 37781 ft 481 kts 303°
2026-05-04 04:16 39.59418 39.33609 37744 ft 480 kts 303°
2026-05-04 04:17 39.63592 39.26855 37785 ft 481 kts 304°
2026-05-04 04:17 39.67779 39.20070 37780 ft 483 kts 304°
2026-05-04 04:18 39.71969 39.13275 37773 ft 486 kts 304°
2026-05-04 04:18 39.76232 39.06434 37788 ft 488 kts 304°
2026-05-04 04:19 39.80534 38.99606 37789 ft 488 kts 304°
2026-05-04 04:19 39.84835 38.92753 37766 ft 489 kts 304°
2026-05-04 04:20 39.89122 38.85893 37769 ft 488 kts 304°
2026-05-04 04:20 39.93395 38.79029 37770 ft 488 kts 304°
2026-05-04 04:21 39.97657 38.72167 37773 ft 487 kts 304°
2026-05-04 04:21 40.01912 38.65305 37773 ft 486 kts 304°
2026-05-04 04:22 40.06158 38.58441 37783 ft 486 kts 304°
2026-05-04 04:22 40.10400 38.51567 37778 ft 486 kts 304°
2026-05-04 04:23 40.14640 38.44681 37775 ft 486 kts 304°
2026-05-04 04:23 40.18878 38.37783 37779 ft 486 kts 304°
2026-05-04 04:24 40.23101 38.30894 37790 ft 486 kts 304°
2026-05-04 04:24 40.27325 38.23985 37786 ft 485 kts 304°
2026-05-04 04:25 40.31442 38.16994 37770 ft 483 kts 299°
2026-05-04 04:25 40.34599 38.09372 37766 ft 476 kts 288°
2026-05-04 04:26 40.37001 38.01322 37784 ft 474 kts 287°
2026-05-04 04:26 40.39366 37.93251 37785 ft 474 kts 287°
2026-05-04 04:27 40.41763 37.85191 37770 ft 475 kts 288°
2026-05-04 04:27 40.44177 37.77108 37779 ft 476 kts 287°
2026-05-04 04:28 40.46590 37.69003 37785 ft 476 kts 287°
2026-05-04 04:28 40.49003 37.60887 37783 ft 478 kts 287°
2026-05-04 04:29 40.51423 37.52730 37783 ft 480 kts 287°
2026-05-04 04:29 40.53840 37.44547 37782 ft 480 kts 287°
2026-05-04 04:30 40.56246 37.36370 37760 ft 480 kts 287°
2026-05-04 04:30 40.58631 37.28238 37759 ft 479 kts 287°
2026-05-04 04:31 40.61024 37.20054 37763 ft 479 kts 287°
2026-05-04 04:31 40.63406 37.11882 37773 ft 478 kts 287°
2026-05-04 04:32 40.65780 37.03713 37775 ft 477 kts 287°
2026-05-04 04:32 40.67762 36.96867 37779 ft 477 kts 287°
2026-05-04 04:33 40.70107 36.88747 37787 ft 477 kts 287°
2026-05-04 04:33 40.72459 36.80572 37786 ft 477 kts 287°
2026-05-04 04:34 40.74807 36.72388 37775 ft 477 kts 287°
2026-05-04 04:34 40.77152 36.64198 37783 ft 478 kts 287°
2026-05-04 04:35 40.79513 36.55982 37781 ft 480 kts 287°
2026-05-04 04:35 40.81879 36.47727 37781 ft 481 kts 287°
2026-05-04 04:36 40.84238 36.39452 37773 ft 482 kts 287°
2026-05-04 04:36 40.86592 36.31165 37773 ft 482 kts 286°
2026-05-04 04:37 40.91285 36.14551 37771 ft 483 kts 286°
2026-05-04 04:38 40.93614 36.06275 37769 ft 483 kts 286°
2026-05-04 04:38 40.95916 35.97927 37764 ft 483 kts 285°
2026-05-04 04:39 40.98197 35.89559 37763 ft 483 kts 286°
2026-05-04 04:39 41.00495 35.81205 37765 ft 483 kts 286°
2026-05-04 04:40 41.02821 35.72857 37760 ft 483 kts 286°
2026-05-04 04:40 41.05135 35.64521 37773 ft 482 kts 286°
2026-05-04 04:41 41.07435 35.56178 37933 ft 483 kts 288°
2026-05-04 04:41 41.09767 35.47672 37822 ft 498 kts 288°
2026-05-04 04:42 41.12143 35.38984 37770 ft 508 kts 288°
2026-05-04 04:42 41.14548 35.30169 37752 ft 508 kts 288°
2026-05-04 04:43 41.16944 35.21351 37764 ft 508 kts 288°
2026-05-04 04:43 41.19334 35.12521 37763 ft 508 kts 288°
2026-05-04 04:44 41.21711 35.03706 37765 ft 507 kts 288°
2026-05-04 04:44 41.24078 34.94893 37770 ft 505 kts 288°
2026-05-04 04:45 41.26433 34.86103 37781 ft 504 kts 288°
2026-05-04 04:47 41.34603 34.55394 37790 ft 502 kts 288°
2026-05-04 04:47 41.36901 34.46676 37788 ft 502 kts 288°
2026-05-04 04:48 41.39206 34.37898 37790 ft 502 kts 288°
2026-05-04 04:49 41.44890 34.15902 37799 ft 502 kts 288°
2026-05-04 04:49 41.47155 34.07097 37810 ft 502 kts 288°
2026-05-04 04:50 41.49422 33.98309 37823 ft 501 kts 288°
2026-05-04 04:50 41.51675 33.89531 37821 ft 501 kts 288°
2026-05-04 04:51 41.53921 33.80729 37820 ft 500 kts 288°
2026-05-04 04:51 41.56155 33.71936 37839 ft 500 kts 288°
2026-05-04 04:52 41.58385 33.63126 37837 ft 500 kts 288°
2026-05-04 04:52 41.60595 33.54324 37841 ft 500 kts 288°
2026-05-04 04:53 41.62782 33.45505 37847 ft 500 kts 288°
2026-05-04 04:53 41.65015 33.36702 37842 ft 500 kts 288°
2026-05-04 04:54 41.67238 33.27881 37838 ft 501 kts 288°
2026-05-04 04:54 41.69448 33.19038 37853 ft 501 kts 288°
2026-05-04 04:55 41.71648 33.10183 37850 ft 501 kts 288°
2026-05-04 04:55 41.73829 33.01390 37849 ft 501 kts 288°
2026-05-04 04:56 41.75995 32.92504 37843 ft 502 kts 288°
2026-05-04 04:56 41.78142 32.83617 37858 ft 501 kts 288°
2026-05-04 04:57 41.80289 32.74729 37855 ft 501 kts 288°
2026-05-04 04:57 41.82473 32.65843 37843 ft 502 kts 288°
2026-05-04 04:58 41.84658 32.56959 37855 ft 502 kts 288°
2026-05-04 04:58 41.86829 32.48061 37864 ft 502 kts 288°
2026-05-04 04:59 41.88942 32.39172 37860 ft 496 kts 288°
2026-05-04 04:59 41.91012 32.30359 37881 ft 497 kts 288°
2026-05-04 05:00 41.93115 32.21583 37876 ft 494 kts 288°
2026-05-04 05:01 41.96268 32.08312 37898 ft 500 kts 288°
2026-05-04 05:01 41.98370 31.99393 37900 ft 501 kts 288°
2026-05-04 05:02 42.00476 31.90434 37900 ft 504 kts 288°
2026-05-04 05:02 42.02587 31.81432 37915 ft 507 kts 288°
2026-05-04 05:03 42.04708 31.72347 37911 ft 508 kts 288°
2026-05-04 05:04 42.08895 31.54263 37913 ft 507 kts 288°
2026-05-04 05:04 42.10983 31.45188 37920 ft 509 kts 288°
2026-05-04 05:06 42.19319 31.08804 37928 ft 508 kts 288°
2026-05-04 05:07 42.21384 30.99693 37933 ft 509 kts 288°
2026-05-04 05:07 42.23447 30.90552 37931 ft 510 kts 288°
2026-05-04 05:09 42.32635 30.49348 37951 ft 507 kts 288°
2026-05-04 05:10 42.34654 30.40191 37963 ft 511 kts 288°
2026-05-04 05:10 42.36681 30.30954 37971 ft 511 kts 288°
2026-05-04 05:11 42.38688 30.21768 37971 ft 510 kts 287°
2026-05-04 05:11 42.40691 30.12563 37972 ft 509 kts 287°
2026-05-04 05:12 42.42676 30.03389 37979 ft 509 kts 287°
2026-05-04 05:12 42.44671 29.94183 37976 ft 510 kts 289°
2026-05-04 05:13 42.47479 29.85446 37985 ft 505 kts 300°
2026-05-04 05:13 42.51368 29.77520 38021 ft 505 kts 309°
2026-05-04 05:14 42.55664 29.70007 38014 ft 505 kts 310°
2026-05-04 05:14 42.59974 29.62462 38021 ft 506 kts 309°
2026-05-04 05:15 42.64235 29.54879 38025 ft 505 kts 309°
2026-05-04 05:15 42.68478 29.47258 38029 ft 505 kts 309°
2026-05-04 05:16 42.72710 29.39635 38030 ft 505 kts 309°
2026-05-04 05:16 42.76900 29.32075 38026 ft 502 kts 309°
2026-05-04 05:17 42.81118 29.24449 38034 ft 507 kts 309°
2026-05-04 05:17 42.85331 29.16808 38032 ft 503 kts 308°
2026-05-04 05:18 42.89572 29.09097 38039 ft 505 kts 308°
2026-05-04 05:18 42.93732 29.01513 38045 ft 502 kts 308°
2026-05-04 05:19 42.97926 28.93848 38043 ft 504 kts 308°
2026-05-04 05:19 43.02114 28.86170 38046 ft 504 kts 308°
2026-05-04 05:20 43.06296 28.78488 38048 ft 503 kts 308°
2026-05-04 05:20 43.10456 28.70779 38049 ft 503 kts 308°
2026-05-04 05:21 43.14592 28.63058 38056 ft 502 kts 308°
2026-05-04 05:21 43.18704 28.55358 38052 ft 498 kts 308°
2026-05-04 05:22 43.22747 28.47770 38039 ft 493 kts 308°
2026-05-04 05:22 43.26767 28.40212 38032 ft 489 kts 307°
2026-05-04 05:23 43.30766 28.32673 38031 ft 487 kts 307°
2026-05-04 05:23 43.34080 28.26413 38016 ft 488 kts 308°
2026-05-04 05:24 43.38069 28.18857 38024 ft 489 kts 307°
2026-05-04 05:24 43.42070 28.11259 38028 ft 491 kts 307°
2026-05-04 05:25 43.46078 28.03629 38021 ft 493 kts 307°
2026-05-04 05:25 43.50096 27.95958 38035 ft 494 kts 307°
2026-05-04 05:26 43.54119 27.88258 38043 ft 495 kts 307°
2026-05-04 05:26 43.58143 27.80535 38053 ft 495 kts 307°
2026-05-04 05:28 43.73996 27.49915 38064 ft 491 kts 307°
2026-05-04 05:29 43.77955 27.42216 38069 ft 490 kts 307°
2026-05-04 05:29 43.81900 27.34525 38078 ft 489 kts 307°
2026-05-04 05:31 43.97580 27.03751 38082 ft 486 kts 307°
2026-05-04 05:32 44.01474 26.96053 38083 ft 486 kts 307°
2026-05-04 05:33 44.07267 26.84568 38084 ft 484 kts 307°
2026-05-04 05:33 44.10683 26.76495 38118 ft 485 kts 300°
2026-05-04 05:34 44.13799 26.68170 38108 ft 485 kts 300°
2026-05-04 05:34 44.16900 26.59822 38107 ft 485 kts 300°
2026-05-04 05:35 44.20016 26.51496 38104 ft 484 kts 300°
2026-05-04 05:35 44.23141 26.43167 38102 ft 485 kts 300°
2026-05-04 05:36 44.26265 26.34827 38102 ft 485 kts 300°
2026-05-04 05:36 44.29388 26.26463 38103 ft 486 kts 300°
2026-05-04 05:37 44.32509 26.18074 38101 ft 487 kts 300°
2026-05-04 05:37 44.35607 26.09722 38106 ft 488 kts 300°
2026-05-04 05:38 44.40282 25.97071 38103 ft 489 kts 300°
2026-05-04 05:38 44.43400 25.88599 38101 ft 489 kts 300°
2026-05-04 05:39 44.48064 25.75879 38109 ft 489 kts 300°
2026-05-04 05:40 44.52707 25.63155 38108 ft 488 kts 300°
2026-05-04 05:40 44.55786 25.54686 38109 ft 487 kts 300°
2026-05-04 05:41 44.58841 25.46258 38105 ft 486 kts 300°
2026-05-04 05:41 44.61884 25.37835 38109 ft 484 kts 300°
2026-05-04 05:42 44.64921 25.29405 38110 ft 483 kts 300°
2026-05-04 05:42 44.67949 25.20974 38110 ft 483 kts 300°
2026-05-04 05:43 44.70967 25.12544 38122 ft 482 kts 300°
2026-05-04 05:45 44.82971 24.78752 38123 ft 483 kts 299°
2026-05-04 05:47 44.94877 24.44812 38126 ft 483 kts 299°
2026-05-04 05:47 44.97836 24.36309 38132 ft 483 kts 299°
2026-05-04 05:48 45.00791 24.27793 38133 ft 482 kts 299°
2026-05-04 05:48 45.03736 24.19276 38125 ft 481 kts 299°
2026-05-04 05:49 45.06668 24.10772 38138 ft 481 kts 299°
2026-05-04 05:49 45.09593 24.02262 38130 ft 480 kts 299°
2026-05-04 05:51 45.21207 23.68198 38125 ft 482 kts 298°
2026-05-04 05:52 45.24106 23.59627 38135 ft 482 kts 298°
2026-05-04 05:52 45.27001 23.51039 38132 ft 482 kts 299°
2026-05-04 05:54 45.38496 23.16661 38133 ft 479 kts 299°
2026-05-04 05:55 45.41326 23.08122 38144 ft 476 kts 299°
2026-05-04 05:55 45.44143 22.99606 38149 ft 476 kts 299°
2026-05-04 05:56 45.46955 22.91075 38159 ft 474 kts 299°
2026-05-04 05:56 45.49728 22.82633 38151 ft 473 kts 299°
2026-05-04 05:57 45.52511 22.74129 38152 ft 472 kts 299°
2026-05-04 05:57 45.55280 22.65645 38153 ft 471 kts 299°
2026-05-04 05:58 45.58037 22.57168 38163 ft 470 kts 299°
2026-05-04 05:58 45.60786 22.48689 38177 ft 470 kts 299°
2026-05-04 05:59 45.63526 22.40213 38188 ft 470 kts 299°
2026-05-04 05:59 45.66265 22.31707 38153 ft 471 kts 299°
2026-05-04 06:00 45.68995 22.23203 38186 ft 470 kts 299°
2026-05-04 06:00 45.71720 22.14691 38186 ft 470 kts 298°
2026-05-04 06:01 45.74440 22.06162 38184 ft 471 kts 298°
2026-05-04 06:03 45.85266 21.71932 38179 ft 472 kts 298°
2026-05-04 06:05 45.97301 21.33331 38179 ft 469 kts 297°
2026-05-04 06:06 45.99944 21.24774 38176 ft 468 kts 297°
2026-05-04 06:06 46.02582 21.16206 38175 ft 468 kts 297°
2026-05-04 06:07 46.05207 21.07648 38178 ft 467 kts 297°
2026-05-04 06:07 46.07807 20.99143 38178 ft 466 kts 297°
2026-05-04 06:08 46.10413 20.90588 38171 ft 466 kts 297°
2026-05-04 06:08 46.13011 20.82027 38161 ft 466 kts 297°
2026-05-04 06:09 46.15602 20.73465 38155 ft 466 kts 297°
2026-05-04 06:11 46.24672 20.40090 38161 ft 466 kts 294°
2026-05-04 06:13 46.33943 20.05126 38157 ft 465 kts 294°
2026-05-04 06:14 46.41942 19.74585 38157 ft 464 kts 293°
2026-05-04 06:15 46.44211 19.65837 38150 ft 463 kts 293°
2026-05-04 06:15 46.46470 19.57093 38153 ft 463 kts 293°
2026-05-04 06:16 46.48724 19.48337 38151 ft 463 kts 293°
2026-05-04 06:16 46.50966 19.39593 38157 ft 462 kts 293°
2026-05-04 06:17 46.53203 19.30833 38152 ft 462 kts 293°
2026-05-04 06:17 46.55431 19.22076 38153 ft 462 kts 292°
2026-05-04 06:18 46.57650 19.13321 38155 ft 461 kts 292°
2026-05-04 06:20 46.66451 18.78261 38144 ft 461 kts 292°
2026-05-04 06:21 46.71879 18.56358 38142 ft 461 kts 291°
2026-05-04 06:22 46.74043 18.47557 38140 ft 461 kts 291°
2026-05-04 06:25 46.86754 17.84714 38116 ft 460 kts 287°
2026-05-04 06:26 46.88469 17.75712 38118 ft 459 kts 287°
2026-05-04 06:26 46.90174 17.66719 38116 ft 459 kts 287°
2026-05-04 06:27 46.94390 17.44289 38108 ft 458 kts 287°
2026-05-04 06:28 46.96067 17.35292 38113 ft 458 kts 286°
2026-05-04 06:28 46.97733 17.26304 38111 ft 457 kts 286°
2026-05-04 06:29 46.99395 17.17303 38112 ft 457 kts 286°
2026-05-04 06:29 47.01045 17.08320 38104 ft 457 kts 286°
2026-05-04 06:30 47.02690 16.99317 38103 ft 457 kts 285°
2026-05-04 06:30 47.04328 16.90315 38095 ft 457 kts 285°
2026-05-04 06:31 47.05955 16.81320 38101 ft 457 kts 285°
2026-05-04 06:31 47.07577 16.72307 38102 ft 457 kts 285°
2026-05-04 06:33 47.13972 16.36322 38096 ft 455 kts 284°
2026-05-04 06:34 47.15133 16.27193 38101 ft 455 kts 279°
2026-05-04 06:34 47.16116 16.18011 38093 ft 455 kts 279°
2026-05-04 06:36 47.20037 15.81302 38098 ft 454 kts 279°
2026-05-04 06:37 47.21006 15.72127 38094 ft 454 kts 279°
2026-05-04 06:37 47.21967 15.62952 38091 ft 453 kts 279°
2026-05-04 06:38 47.22919 15.53790 38092 ft 453 kts 279°
2026-05-04 06:40 47.26648 15.17155 38097 ft 452 kts 278°
2026-05-04 06:40 47.27556 15.08056 38100 ft 452 kts 278°
2026-05-04 06:41 47.28463 14.98890 38107 ft 452 kts 278°
2026-05-04 06:41 47.29361 14.89733 38101 ft 452 kts 278°
2026-05-04 06:42 47.30251 14.80574 38107 ft 451 kts 278°
2026-05-04 06:44 47.33734 14.43983 38086 ft 450 kts 277°
2026-05-04 06:44 47.34584 14.34854 38086 ft 448 kts 277°
2026-05-04 06:45 47.35425 14.25728 38080 ft 448 kts 277°
2026-05-04 06:45 47.36259 14.16617 38084 ft 448 kts 277°
2026-05-04 06:46 47.37086 14.07499 38085 ft 448 kts 277°
2026-05-04 06:46 47.37900 13.98429 38079 ft 449 kts 277°
2026-05-04 06:48 47.41117 13.61782 38075 ft 451 kts 276°
2026-05-04 06:50 47.44227 13.24957 38073 ft 452 kts 276°
2026-05-04 06:51 47.44985 13.15750 38072 ft 452 kts 276°
2026-05-04 06:51 47.45734 13.06547 38078 ft 450 kts 276°
2026-05-04 06:52 47.46477 12.97365 38071 ft 450 kts 276°
2026-05-04 06:52 47.47212 12.88170 38074 ft 451 kts 275°
2026-05-04 06:53 47.47941 12.78947 38064 ft 452 kts 275°
2026-05-04 06:53 47.48660 12.69765 38063 ft 452 kts 275°
2026-05-04 06:54 47.49374 12.60533 38058 ft 453 kts 275°
2026-05-04 06:54 47.50082 12.51285 38071 ft 453 kts 275°
2026-05-04 06:55 47.50784 12.42024 38056 ft 453 kts 275°
2026-05-04 06:55 47.51478 12.32767 38060 ft 452 kts 275°
2026-05-04 06:57 47.54236 11.97372 38043 ft 452 kts 280°
2026-05-04 06:58 47.55529 11.88268 38063 ft 453 kts 281°
2026-05-04 06:58 47.56842 11.79154 38049 ft 452 kts 281°
2026-05-04 06:59 47.58113 11.70038 38059 ft 451 kts 280°
2026-05-04 06:59 47.59364 11.60924 38047 ft 451 kts 280°
2026-05-04 07:01 47.64131 11.24459 38057 ft 450 kts 279°
2026-05-04 07:02 47.65047 11.16791 38054 ft 450 kts 279°
2026-05-04 07:02 47.65589 11.12262 38061 ft 450 kts 279°
2026-05-04 07:03 47.66683 11.03126 38076 ft 450 kts 278°
2026-05-04 07:03 47.67772 10.93983 38068 ft 450 kts 278°
2026-05-04 07:04 47.68854 10.84830 38070 ft 450 kts 278°
2026-05-04 07:04 47.69927 10.75682 38069 ft 450 kts 278°
2026-05-04 07:05 47.70993 10.66534 38067 ft 449 kts 278°
2026-05-04 07:05 47.72048 10.57399 38068 ft 449 kts 278°
2026-05-04 07:06 47.73587 10.43967 38045 ft 449 kts 278°
2026-05-04 07:07 47.74492 10.34792 38044 ft 448 kts 273°